K7TUS-6 Weather Reports


Display with metric or nautical units.
time (UTC)temp
F
wind
direction
speed
MPH
gust
MPH
rain 1hr
in
rain 24hr
in
rain mn
in
humidity
%
barometer
mb
20260509031008 55 306 9.0 16.0 0.00 0.00 0.00 3 986.1
20260509030507 55 296 8.0 10.0 0.00 0.00 0.00 4 986.4
20260509030006 55 294 9.0 12.0 0.00 0.00 0.00 3 987.1
20260509025505 55 307 7.0 9.0 0.00 0.00 0.00 3 986.1
20260509025004 55 302 9.0 14.0 0.00 0.00 0.00 3 985.9
20260509024003 55 293 6.0 10.0 0.00 0.00 0.00 3 986.4
20260509023509 55 320 10.0 19.0 0.00 0.00 0.00 2 986.7
20260509023008 56 295 6.0 9.0 0.00 0.00 0.00 2 985.9
20260509022508 55 298 8.0 13.0 0.00 0.00 0.00 2 986.4
20260509022007 56 323 9.0 11.0 0.00 0.00 0.00 2 986.2
20260509021507 56 323 7.0 10.0 0.00 0.00 0.00 2 985.6
20260509020507 56 320 7.0 11.0 0.00 0.00 0.00 2 985.4
20260509020006 56 332 9.0 15.0 0.00 0.00 0.00 1 985.6
20260509015505 57 327 8.0 13.0 0.00 0.00 0.00 2 985.5
20260509014504 57 321 11.0 15.0 0.00 0.00 0.00 1 985.9
20260509014009 58 303 7.0 9.0 0.00 0.00 0.00 100 986.4
20260509013509 58 327 9.0 11.0 0.00 0.00 0.00 1 986.2
20260509013008 58 322 5.0 9.0 0.00 0.00 0.00 1 985.6
20260509012508 58 301 8.0 14.0 0.00 0.00 0.00 1 985.7
20260509012007 59 320 7.0 10.0 0.00 0.00 0.00 1 984.9
20260509011507 59 321 12.0 15.0 0.00 0.00 0.00 1 985.7
20260509011006 60 325 9.0 12.0 0.00 0.00 0.00 1 985.5
20260509010505 60 329 8.0 10.0 0.00 0.00 0.00 1 985.6
20260509010005 62 10 4.0 9.0 0.00 0.00 0.00 1 985.1
20260509005510 64 7 4.0 4.0 0.00 0.00 0.00 1 986.3
20260509005003 64 7 4.0 6.0 0.00 0.00 0.00 1 986.3
20260509004503 64 289 6.0 6.0 0.00 0.00 0.00 1 986.4
20260509004008 64 289 6.0 6.0 0.00 0.00 0.00 1 986.4
20260509003508 64 289 6.0 6.0 0.00 0.00 0.00 1 986.4
20260509003007 66 339 4.0 5.0 0.00 0.00 0.00 1 985.6
20260509002506 64 335 5.0 6.0 0.00 0.00 0.00 1 986.5
20260509002006 68 333 2.0 2.0 0.00 0.00 0.00 1 985.6
20260509001505 68 333 2.0 2.0 0.00 0.00 0.00 1 985.6
20260509001005 68 333 2.0 2.0 0.00 0.00 0.00 1 985.6
20260509000504 68 333 2.0 2.0 0.00 0.00 0.00 1 985.6
20260509000004 65 276 4.0 4.0 0.00 0.00 0.00 1 985.4
20260508235509 65 267 2.0 2.0 0.00 0.00 0.00 1 985.0
20260508235008 65 267 3.0 5.0 0.00 0.00 0.00 1 985.0
20260508234507 64 299 10.0 10.0 0.00 0.00 0.00 1 986.3
20260508234007 64 299 10.0 10.0 0.00 0.00 0.00 1 986.3
20260508233506 64 299 10.0 14.0 0.00 0.00 0.00 1 986.3
20260508233006 65 288 6.0 8.0 0.00 0.00 0.00 1 985.9
20260508232506 67 223 3.0 3.0 0.00 0.00 0.00 1 986.4
20260508232005 67 213 6.0 10.0 0.00 0.00 0.00 1 985.2
20260508231504 66 326 5.0 10.0 0.00 0.00 0.00 1 985.9
20260508231004 68 242 6.0 9.0 0.00 0.00 0.00 1 985.7
20260508230503 70 17 1.0 2.0 0.00 0.00 0.00 1 985.7
20260508230009 66 318 3.0 7.0 0.00 0.00 0.00 1 986.5
20260508225508 65 297 6.0 8.0 0.00 0.00 0.00 1 986.4
20260508225007 65 295 3.0 6.0 0.00 0.00 0.00 1 986.4
20260508224507 64 289 8.0 11.0 0.00 0.00 0.00 1 987.4
20260508224006 69 326 4.0 8.0 0.00 0.00 0.00 1 986.1
20260508223505 65 55 1.0 4.0 0.00 0.00 0.00 1 986.8
20260508223005 63 304 7.0 9.0 0.00 0.00 0.00 1 986.5
20260508222504 64 206 8.0 11.0 0.00 0.00 0.00 1 986.3
20260508222004 65 316 3.0 5.0 0.00 0.00 0.00 1 986.5
20260508221503 65 330 5.0 8.0 0.00 0.00 0.00 1 987.2
20260508221003 65 357 4.0 6.0 0.00 0.00 0.00 1 985.3
20260508220508 66 345 4.0 6.0 0.00 0.00 0.00 1 985.3
20260508220007 64 226 7.0 10.0 0.00 0.00 0.00 1 986.8
20260508215507 64 327 5.0 11.0 0.00 0.00 0.00 1 986.4
20260508215006 63 303 5.0 8.0 0.00 0.00 0.00 1 987.0
20260508214505 63 308 9.0 13.0 0.00 0.00 0.00 1 986.8
20260508214004 65 328 4.0 9.0 0.00 0.00 0.00 1 986.7
20260508213504 67 320 3.0 7.0 0.00 0.00 0.00 1 987.2
20260508213003 65 351 3.0 5.0 0.00 0.00 0.00 1 987.3
20260508212509 65 317 8.0 10.0 0.00 0.00 0.00 1 987.1
20260508212008 65 335 4.0 6.0 0.00 0.00 0.00 1 987.2
20260508211508 64 16 2.0 5.0 0.00 0.00 0.00 1 986.5
20260508211007 64 209 4.0 7.0 0.00 0.00 0.00 1 987.1
20260508210506 63 228 6.0 11.0 0.00 0.00 0.00 100 986.9
20260508205505 64 225 1.0 4.0 0.00 0.00 0.00 1 987.6
20260508205004 63 318 7.0 13.0 0.00 0.00 0.00 1 988.3
20260508204504 64 276 2.0 5.0 0.00 0.00 0.00 100 987.8
20260508204003 62 298 10.0 15.0 0.00 0.00 0.00 1 987.1
20260508203508 63 316 4.0 4.0 0.00 0.00 0.00 2 987.0
20260508203008 63 316 4.0 4.0 0.00 0.00 0.00 2 987.0
20260508202508 62 317 6.0 6.0 0.00 0.00 0.00 1 987.8
20260508202007 64 333 8.0 8.0 0.00 0.00 0.00 1 987.6
20260508201506 64 333 9.0 10.0 0.00 0.00 0.00 1 987.6
20260508201006 65 230 4.0 4.0 0.00 0.00 0.00 1 986.3
20260508200505 65 230 3.0 4.0 0.00 0.00 0.00 1 986.3
20260508200011 70 305 2.0 4.0 0.00 0.00 0.00 1 987.2
20260508195506 69 44 3.0 5.0 0.00 0.00 0.00 1 988.2
20260508195005 68 338 1.0 4.0 0.00 0.00 0.00 1 987.1
20260508194505 67 334 2.0 4.0 0.00 0.00 0.00 1 987.4
20260508194004 66 349 2.0 5.0 0.00 0.00 0.00 1 987.7
20260508193503 65 322 4.0 12.0 0.00 0.00 0.00 1 987.1
20260508193009 67 220 1.0 2.0 0.00 0.00 0.00 1 986.9
20260508192508 65 311 2.0 4.0 0.00 0.00 0.00 1 987.7
20260508192008 64 334 7.0 10.0 0.00 0.00 0.00 1 987.9
20260508191506 63 333 6.0 9.0 0.00 0.00 0.00 1 987.3
20260508191006 64 322 6.0 9.0 0.00 0.00 0.00 1 987.5
20260508190505 63 350 3.0 5.0 0.00 0.00 0.00 1 987.4
20260508190005 63 335 5.0 10.0 0.00 0.00 0.00 1 987.5
20260508185504 63 341 6.0 9.0 0.00 0.00 0.00 1 988.2
20260508185003 65 298 4.0 6.0 0.00 0.00 0.00 1 987.9
20260508184503 67 75 2.0 4.0 0.00 0.00 0.00 1 987.9
20260508184008 67 296 2.0 5.0 0.00 0.00 0.00 1 988.1
20260508183507 66 350 3.0 5.0 0.00 0.00 0.00 1 988.2
20260508183007 64 325 4.0 6.0 0.00 0.00 0.00 1 987.4
20260508182507 64 296 3.0 4.0 0.00 0.00 0.00 1 989.1
20260508182006 65 90 1.0 2.0 0.00 0.00 0.00 1 987.9
20260508181505 63 344 5.0 10.0 0.00 0.00 0.00 1 987.5
20260508181005 62 322 5.0 7.0 0.00 0.00 0.00 2 987.9
20260508180504 63 342 3.0 7.0 0.00 0.00 0.00 100 988.5
20260508180004 62 302 3.0 6.0 0.00 0.00 0.00 100 987.9
20260508175503 61 312 5.0 8.0 0.00 0.00 0.00 1 988.1
20260508175003 60 304 3.0 6.0 0.00 0.00 0.00 1 987.8
20260508174508 62 322 3.0 5.0 0.00 0.00 0.00 1 988.1
20260508174008 62 338 1.0 4.0 0.00 0.00 0.00 4 987.6
20260508173507 60 314 4.0 7.0 0.00 0.00 0.00 2 988.2
20260508173007 59 301 7.0 9.0 0.00 0.00 0.00 2 987.6
20260508172506 56 311 12.0 14.0 0.00 0.00 0.00 2 987.4
20260508172005 59 315 7.0 10.0 0.00 0.00 0.00 2 987.8
20260508171505 61 313 4.0 8.0 0.00 0.00 0.00 3 988.2
20260508171005 60 328 4.0 7.0 0.00 0.00 0.00 4 987.4
20260508170504 57 326 8.0 10.0 0.00 0.00 0.00 3 986.7
20260508170004 58 333 12.0 19.0 0.00 0.00 0.00 1 987.0
20260508165503 60 333 3.0 7.0 0.00 0.00 0.00 3 987.5
20260508165002 56 307 8.0 11.0 0.00 0.00 0.00 3 987.2
20260508164508 58 332 6.0 11.0 0.00 0.00 0.00 2 987.4
20260508164007 57 329 6.0 12.0 0.00 0.00 0.00 3 987.4
20260508163507 55 324 11.0 15.0 0.00 0.00 0.00 3 987.9
20260508163006 54 330 13.0 17.0 0.00 0.00 0.00 3 987.1
20260508162505 55 334 8.0 14.0 0.00 0.00 0.00 2 987.8
20260508161505 54 312 10.0 14.0 0.00 0.00 0.00 2 987.0
20260508161004 55 295 10.0 13.0 0.00 0.00 0.00 2 987.2
20260508160003 54 354 14.0 19.0 0.00 0.00 0.00 100 986.7
20260508155502 54 315 12.0 15.0 0.00 0.00 0.00 100 985.9
20260508155008 53 323 13.0 17.0 0.00 0.00 0.00 1 986.5
20260508154507 53 324 13.0 17.0 0.00 0.00 0.00 1 986.8
20260508154007 54 328 10.0 15.0 0.00 0.00 0.00 100 986.5
20260508153506 55 301 5.0 10.0 0.00 0.00 0.00 100 986.7
20260508153005 53 343 12.0 15.0 0.00 0.00 0.00 1 985.8
20260508152505 53 316 12.0 18.0 0.00 0.00 0.00 1 985.8
20260508152004 53 301 9.0 9.0 0.00 0.00 0.00 2 985.6
20260508151504 53 330 13.0 17.0 0.00 0.00 0.00 1 985.4
20260508150503 52 325 18.0 18.0 0.00 0.00 0.00 2 985.0
20260508150003 53 324 7.0 7.0 0.00 0.00 0.00 1 986.2
20260508145508 53 336 6.0 6.0 0.00 0.00 0.00 100 986.8
20260508145007 53 324 10.0 13.0 0.00 0.00 0.00 1 986.1
20260508144506 52 314 12.0 15.0 0.00 0.00 0.00 1 985.8
20260508144006 52 325 9.0 15.0 0.00 0.00 0.00 2 985.7
20260508143505 51 321 11.0 16.0 0.00 0.00 0.00 2 986.4
20260508143004 51 322 13.0 19.0 0.00 0.00 0.00 3 986.0
20260508142504 50 317 15.0 18.0 0.00 0.00 0.00 3 985.4
20260508142003 50 321 16.0 21.0 0.00 0.00 0.00 3 985.5
20260508141508 49 312 16.0 19.0 0.00 0.00 0.00 5 985.1
20260508141008 49 318 16.0 18.0 0.00 0.00 0.00 5 984.5
20260508140507 49 316 16.0 20.0 0.00 0.00 0.00 5 986.0
20260508140003 49 307 16.0 19.0 0.00 0.00 0.00 6 985.4
20260508135502 49 317 14.0 15.0 0.00 0.00 0.00 6 985.7
20260508135007 49 323 16.0 17.0 0.00 0.00 0.00 6 984.6
20260508134507 48 305 14.0 15.0 0.00 0.00 0.00 6 984.7
20260508134006 48 324 12.0 15.0 0.00 0.00 0.00 6 983.9
20260508133506 48 325 15.0 17.0 0.00 0.00 0.00 6 985.7
20260508133005 48 321 14.0 17.0 0.00 0.00 0.00 7 985.0
20260508132504 48 318 16.0 18.0 0.00 0.00 0.00 6 984.7
20260508132004 47 324 12.0 15.0 0.00 0.00 0.00 7 984.1
20260508131503 47 325 13.0 16.0 0.00 0.00 0.00 7 984.8
20260508131003 47 328 17.0 17.0 0.00 0.00 0.00 7 984.8
20260508130502 47 328 17.0 19.0 0.00 0.00 0.00 7 984.8
20260508130007 47 318 16.0 16.0 0.00 0.00 0.00 8 984.1
20260508125507 47 318 16.0 16.0 0.00 0.00 0.00 8 984.1
20260508125006 47 318 16.0 16.0 0.00 0.00 0.00 8 984.1
20260508124505 47 328 17.0 17.0 0.00 0.00 0.00 8 984.2
20260508124005 47 319 15.0 18.0 0.00 0.00 0.00 8 984.0
20260508123504 47 321 15.0 17.0 0.00 0.00 0.00 8 984.9
20260508123004 47 321 14.0 16.0 0.00 0.00 0.00 8 984.0
20260508122503 47 323 15.0 17.0 0.00 0.00 0.00 7 984.4
20260508122002 47 301 14.0 17.0 0.00 0.00 0.00 7 984.3
20260508121508 47 311 15.0 20.0 0.00 0.00 0.00 8 984.8
20260508121007 47 330 15.0 18.0 0.00 0.00 0.00 8 983.9
20260508120507 47 315 15.0 15.0 0.00 0.00 0.00 7 984.8
20260508120006 46 326 12.0 12.0 0.00 0.00 0.00 7 983.9
20260508115005 46 321 15.0 15.0 0.00 0.00 0.00 7 983.9
20260508114504 47 319 15.0 22.0 0.00 0.00 0.00 6 984.0
20260508114004 47 312 14.0 16.0 0.00 0.00 0.00 6 984.0
20260508113004 47 324 17.0 21.0 0.00 0.00 0.00 5 983.8
20260508112502 47 322 15.0 18.0 0.00 0.00 0.00 6 984.1
20260508112002 47 324 14.0 17.0 0.00 0.00 0.00 7 984.4
20260508111507 47 310 15.0 19.0 0.00 0.00 0.00 8 984.1
20260508111007 47 321 14.0 17.0 0.00 0.00 0.00 9 983.1
20260508110506 47 318 15.0 17.0 0.00 0.00 0.00 8 982.7
20260508110005 47 309 15.0 18.0 0.00 0.00 0.00 7 984.2
20260508105505 47 307 16.0 18.0 0.00 0.00 0.00 6 983.6
20260508105004 47 321 14.0 16.0 0.00 0.00 0.00 5 983.9
20260508104504 47 321 14.0 17.0 0.00 0.00 0.00 5 983.8
20260508104003 47 320 14.0 17.0 0.00 0.00 0.00 5 984.0
20260508103503 47 320 14.0 16.0 0.00 0.00 0.00 4 984.0
20260508103002 47 320 16.0 19.0 0.00 0.00 0.00 4 983.7
20260508102507 48 320 13.0 17.0 0.00 0.00 0.00 4 983.3
20260508102007 47 322 15.0 16.0 0.00 0.00 0.00 4 983.8
20260508101506 48 311 15.0 18.0 0.00 0.00 0.00 4 983.9
20260508101006 48 312 13.0 17.0 0.00 0.00 0.00 4 983.7
20260508100505 48 318 16.0 18.0 0.00 0.00 0.00 4 983.5
20260508100005 48 304 13.0 15.0 0.00 0.00 0.00 4 983.8
20260508095504 47 309 17.0 21.0 0.00 0.00 0.00 4 984.5
20260508095003 47 316 17.0 22.0 0.00 0.00 0.00 3 984.5
20260508094503 47 321 14.0 18.0 0.00 0.00 0.00 3 984.1
20260508094008 47 336 17.0 19.0 0.00 0.00 0.00 3 983.8
20260508093507 47 324 16.0 19.0 0.00 0.00 0.00 3 983.0
20260508093007 47 318 14.0 17.0 0.00 0.00 0.00 3 983.1
20260508092506 47 323 14.0 17.0 0.00 0.00 0.00 2 984.0
20260508092006 48 316 16.0 21.0 0.00 0.00 0.00 2 983.5
20260508091505 48 316 15.0 17.0 0.00 0.00 0.00 2 983.4
20260508091005 48 320 15.0 20.0 0.00 0.00 0.00 2 983.6
20260508090504 48 322 18.0 22.0 0.00 0.00 0.00 2 983.6
20260508090009 48 331 15.0 19.0 0.00 0.00 0.00 2 983.6
20260508085509 48 325 12.0 16.0 0.00 0.00 0.00 2 984.4
20260508084508 48 319 15.0 17.0 0.00 0.00 0.00 1 984.2
20260508084007 48 315 13.0 20.0 0.00 0.00 0.00 1 985.3
20260508083507 48 317 17.0 22.0 0.00 0.00 0.00 1 985.4
20260508083006 48 323 15.0 17.0 0.00 0.00 0.00 1 984.1
20260508082505 48 323 13.0 16.0 0.00 0.00 0.00 100 984.3
20260508081505 48 330 16.0 19.0 0.00 0.00 0.00 100 984.8
20260508081004 48 320 17.0 17.0 0.00 0.00 0.00 1 984.7
20260508080504 48 320 17.0 17.0 0.00 0.00 0.00 1 984.7
20260508080003 48 310 13.0 13.0 0.00 0.00 0.00 1 984.6
20260508075509 48 318 16.0 16.0 0.00 0.00 0.00 1 984.7
20260508075008 48 317 14.0 14.0 0.00 0.00 0.00 1 984.3
20260508074507 48 308 13.0 13.0 0.00 0.00 0.00 1 984.6
20260508074006 49 323 15.0 15.0 0.00 0.00 0.00 1 984.6
20260508073506 48 324 16.0 16.0 0.00 0.00 0.00 1 984.6
20260508073006 49 320 14.0 15.0 0.00 0.00 0.00 1 985.1
20260508072005 48 320 12.0 16.0 0.00 0.00 0.00 1 984.5
20260508071504 49 316 11.0 14.0 0.00 0.00 0.00 1 984.5
20260508071010 48 313 12.0 15.0 0.00 0.00 0.00 100 985.4
20260508070509 49 309 11.0 13.0 0.00 0.00 0.00 1 984.0
20260508070008 49 297 10.0 15.0 0.00 0.00 0.00 1 985.4
20260508065508 49 294 11.0 14.0 0.00 0.00 0.00 1 985.0
20260508065007 49 306 11.0 13.0 0.00 0.00 0.00 2 984.4
20260508064512 48 298 10.0 15.0 0.00 0.00 0.00 2 985.6
20260508064006 48 302 14.0 18.0 0.00 0.00 0.00 2 985.2
20260508063505 48 307 14.0 17.0 0.00 0.00 0.00 2 985.4
20260508063005 48 296 11.0 13.0 0.00 0.00 0.00 3 984.6
20260508062504 48 294 11.0 14.0 0.00 0.00 0.00 3 985.4
20260508062004 48 302 11.0 14.0 0.00 0.00 0.00 4 984.3
20260508061503 48 322 11.0 14.0 0.00 0.00 0.00 4 985.6
20260508061009 48 307 12.0 15.0 0.00 0.00 0.00 4 985.2
20260508060508 49 322 8.0 11.0 0.00 0.00 0.00 4 985.8
20260508060008 49 292 7.0 12.0 0.00 0.00 0.00 5 986.2
20260508055007 49 291 10.0 14.0 0.00 0.00 0.00 2 985.2
20260508054507 50 324 6.0 8.0 0.00 0.00 0.00 100 985.1
20260508054006 49 285 9.0 12.0 0.00 0.00 0.00 1 986.0
20260508053505 49 297 9.0 12.0 0.00 0.00 0.00 100 985.8
20260508053005 49 287 8.0 11.0 0.00 0.00 0.00 1 985.2
20260508052504 50 283 7.0 11.0 0.00 0.00 0.00 100 985.9
20260508052004 49 291 8.0 12.0 0.00 0.00 0.00 1 985.4
20260508051509 49 264 7.0 9.0 0.00 0.00 0.00 100 985.1
20260508051008 49 297 6.0 8.0 0.00 0.00 0.00 1 985.4
20260508050508 49 293 11.0 14.0 0.00 0.00 0.00 2 986.3
20260508050007 49 289 11.0 14.0 0.00 0.00 0.00 2 985.6
20260508045507 49 266 9.0 12.0 0.00 0.00 0.00 2 985.9
20260508045006 49 247 6.0 12.0 0.00 0.00 0.00 1 985.8
20260508044506 49 293 7.0 11.0 0.00 0.00 0.00 1 985.6
20260508044005 49 285 7.0 10.0 0.00 0.00 0.00 1 984.9
20260508043505 49 322 7.0 7.0 0.00 0.00 0.00 1 986.2
20260508043004 49 291 6.0 12.0 0.00 0.00 0.00 1 986.4
20260508042504 49 310 6.0 6.0 0.00 0.00 0.00 1 985.7
20260508042003 49 310 6.0 6.0 0.00 0.00 0.00 1 985.7
20260508041502 50 320 6.0 6.0 0.00 0.00 0.00 1 986.5
20260508041008 50 320 6.0 6.0 0.00 0.00 0.00 1 986.5
20260508040507 49 290 10.0 10.0 0.00 0.00 0.00 100 985.9
20260508040007 50 297 8.0 8.0 0.00 0.00 0.00 1 985.5
20260508035506 50 304 4.0 4.0 0.00 0.00 0.00 1 985.3
20260508035006 50 304 4.0 4.0 0.00 0.00 0.00 1 985.3
20260508034505 50 325 10.0 10.0 0.00 0.00 0.00 1 984.7
20260508034005 49 296 11.0 11.0 0.00 0.00 0.00 1 985.1
20260508033504 49 296 11.0 11.0 0.00 0.00 0.00 1 985.1
20260508033004 50 296 10.0 10.0 0.00 0.00 0.00 1 985.9
20260508032503 50 298 8.0 13.0 0.00 0.00 0.00 1 985.2
20260508032009 50 305 11.0 13.0 0.00 0.00 0.00 100 985.2
20260508031508 50 282 8.0 13.0 0.00 0.00 0.00 1 985.3